Visibility
15.0 15.0 15.0 15.0 15.0 15.0 15.0 15.0 15.0 15.0 15.0 15.0 9.3 6.7 8.7 9.5 11.2 12.7 15.0 15.0 15.0 15.0
15.0 15.0 15.0 15.0 15.0 15.0 15.0 15.0 15.0 15.0 15.0 15.0 15.0 8.1 15.0 8.7 15.0 15.0 7.3 15.0 15.0 15.0
15.0 15.0 15.0 15.0 15.0 15.0 15.0 15.0 15.0 15.0 15.0 15.0 8.4 15.0 10.3 15.0 13.1 15.0 15.0 4.4 4.2 15.0
15.0 15.0 15.0 15.0 15.0 15.0 15.0 15.0 15.0 15.0 15.0 15.0 7.0 2.5 1.8 15.0 15.0 15.0 14.6 3.3 4.6 5.5
15.0 15.0 15.0 15.0 15.0 15.0 15.0 15.0 15.0 15.0 15.0 15.0 15.0 15.0 9.1 4.7 15.0 14.9 15.0 11.6 9.3 3.3
15.0 15.0 15.0 15.0 15.0 15.0 15.0 15.0 15.0 15.0 15.0 15.0 15.0 15.0 15.0 2.8 5.7 15.0 15.0 15.0 15.0 15.0
15.0 15.0 15.0 15.0 15.0 15.0 15.0 15.0 15.0 15.0 15.0 15.0 15.0 15.0 12.1 2.8 5.6 7.1 15.0 15.0 15.0 10.7
15.0 15.0 15.0 15.0 15.0 15.0 15.0 15.0 15.0 15.0 15.0 15.0 15.0 15.0 15.0 14.8 3.5 15.0 15.0 15.0 15.0 15.0
3.9 5.1 13.7 15.0 15.0 15.0 15.0 15.0 15.0 15.0 15.0 15.0 15.0 15.0 15.0 15.0 1.6 2.2 6.0 15.0 15.0 15.0
0.5 1.1 9.1 4.7 2.7 2.7 3.6 15.0 12.6 15.0 15.0 15.0 15.0 15.0 15.0 15.0 15.0 15.0 8.2 15.0 15.0 13.6
0.2 0.4 0.8 0.4 0.3 0.2 0.7 0.7 7.4 11.3 15.0 15.0 15.0 15.0 15.0 7.2 15.0 11.9 4.9 15.0 15.0 15.0
0.1 0.1 0.1 0.1 0.1 0.1 0.1 0.6 4.5 2.3 15.0 15.0 15.0 15.0 15.0 0.2 2.9 1.6 4.3 14.3 15.0 15.0
0.1 0.1 0.1 0.1 0.1 0.1 0.1 0.1 0.1 0.0 15.0 15.0 15.0 15.0 15.0 0.2 15.0 2.7 1.9 10.4 11.5 15.0
0.1 0.1 0.1 0.1 0.1 0.1 0.1 0.1 0.1 0.1 0.3 2.5 1.1 15.0 0.6 8.8 14.3 5.3 2.6 3.9 15.0 15.0